Weather History for Livingston, MT

Change the Weather History Date:

Tuesday, December 24, 2013

  Actual Average Record
Temperature  
Mean Temperature 33 °F 26 °F  
Max Temperature 38 °F 35 °F 55 °F (1950)
Min Temperature 28 °F 16 °F -41 °F (1983)
Degree Days  
Heating Degree Days 32 39  
Month to date heating degree days 1050 932  
Since 1 July heating degree days 2757 2891  
Moisture  
Dew Point 17 °F    
Average Humidity 55    
Maximum Humidity 69    
Minimum Humidity 40    
Precipitation  
Precipitation 0.01 in 0.02 in 0.24 in (1964)
Month to date precipitation 0.60 0.42  
Year to date precipitation 11.90 14.71  
Sea Level Pressure  
Sea Level Pressure 30.23 in    
Wind  
Wind Speed 22 mph (WSW)    
Max Wind Speed 36 mph    
Max Gust Speed 42 mph    
Visibility 10 miles    
Events      
T = Trace of Precipitation, MM = Missing Value Source: NWS Daily Summary

Daily Weather History Graph

Daily Weather History Graph

Search for Another Location

Airport:

Trip Planner

Search our weather history database for the weather conditions in past years. The results will help you decide how hot, cold, wet, or windy it might be!

Date:

Astronomy

Dec. 24, 2013 Rise Set
Actual Time 8:01 AM MST 4:42 PM MST
Civil Twilight 7:26 AM MST 5:16 PM MST
Nautical Twilight 6:48 AM MST 5:54 PM MST
Astronomical Twilight 6:12 AM MST 6:30 PM MST
Moon No Moon Rise 11:36 AM MST (12/24)
Length of Visible Light 9h 49m
Length of Day
8h 41m
Waning Gibbous, 58% of the Moon is Illuminated
Dec 24
Waning Gibbous
Dec 25
Last Quarter
Jan 1
New
Jan 7
First Quarter
Jan 15
Full

Hourly Weather History & Observations

Time (MST) Temp. Windchill Dew Point Humidity Pressure Visibility Wind Dir Wind Speed Gust Speed Precip Events Conditions
12:08 AM 35.1 °F 24.5 °F 35.1 °F 100% 29.93 in 10.0 mi NW 18.4 mph 25.3 mph 0.00 in   Overcast
12:27 AM 37.0 °F 27.4 °F - N/A% 29.93 in 9.0 mi West 17.3 mph 35.7 mph 0.01 in   Overcast
12:53 AM 36.0 °F 25.3 °F - N/A% 29.98 in 10.0 mi SW 19.6 mph - 0.01 in   Overcast
1:53 AM 37.0 °F 26.2 °F - N/A% 30.02 in 10.0 mi West 21.9 mph 29.9 mph N/A   Clear
2:53 AM 35.1 °F 26.4 °F - N/A% 30.09 in 10.0 mi WSW 12.7 mph - N/A   Mostly Cloudy
3:53 AM 35.1 °F 27.9 °F - N/A% 30.13 in 10.0 mi WSW 9.2 mph - N/A   Overcast
4:53 AM 33.1 °F 23.0 °F 24.1 °F 70% 30.16 in 10.0 mi West 15.0 mph - N/A   Overcast
5:53 AM 33.1 °F 20.6 °F 18.0 °F 54% 30.17 in 10.0 mi WSW 23.0 mph 29.9 mph N/A   Overcast
6:53 AM 33.1 °F 20.6 °F 19.0 °F 56% 30.21 in 10.0 mi WSW 23.0 mph 29.9 mph N/A   Overcast
7:53 AM 33.1 °F 20.9 °F 19.0 °F 56% 30.24 in 10.0 mi WSW 21.9 mph - N/A   Overcast
8:53 AM 34.0 °F 22.7 °F 19.0 °F 54% 30.27 in 10.0 mi WSW 19.6 mph - N/A   Overcast
9:53 AM 34.0 °F 22.7 °F 19.0 °F 54% 30.28 in 10.0 mi WSW 19.6 mph - N/A   Mostly Cloudy
10:53 AM 35.1 °F 22.5 °F 19.0 °F 52% 30.29 in 10.0 mi West 26.5 mph - N/A   Clear
11:53 AM 36.0 °F 23.2 °F 16.0 °F 44% 30.27 in 10.0 mi West 28.8 mph 36.8 mph N/A   Clear
12:53 PM 36.0 °F 23.7 °F 17.1 °F 46% 30.27 in 10.0 mi West 26.5 mph 34.5 mph N/A   Clear
1:53 PM 37.0 °F 24.3 °F 16.0 °F 42% 30.25 in 10.0 mi West 31.1 mph 39.1 mph N/A   Clear
2:53 PM 36.0 °F 23.5 °F 16.0 °F 44% 30.24 in 10.0 mi West 27.6 mph 36.8 mph N/A   Clear
3:53 PM 36.0 °F 22.8 °F 15.1 °F 43% 30.26 in 10.0 mi West 31.1 mph 42.6 mph N/A   Clear
4:53 PM 34.0 °F 21.0 °F 14.0 °F 44% 30.30 in 10.0 mi West 26.5 mph 34.5 mph N/A   Clear
5:53 PM 33.1 °F 20.6 °F 15.1 °F 48% 30.33 in 10.0 mi West 23.0 mph - N/A   Clear
6:53 PM 33.1 °F 20.3 °F 15.1 °F 48% 30.35 in 10.0 mi West 24.2 mph 29.9 mph N/A   Partly Cloudy
7:53 PM 33.1 °F 20.3 °F 12.9 °F 43% 30.35 in 10.0 mi West 24.2 mph - N/A   Clear
8:53 PM 30.0 °F 17.2 °F 14.0 °F 51% 30.37 in 10.0 mi West 20.7 mph - N/A   Clear
9:53 PM 30.0 °F 16.6 °F 12.9 °F 49% 30.38 in 10.0 mi WSW 23.0 mph - N/A   Clear
10:53 PM 28.9 °F 18.2 °F 12.9 °F 51% 30.40 in 10.0 mi WSW 13.8 mph - N/A   Clear
11:53 PM 30.0 °F 17.5 °F 12.0 °F 47% 30.40 in 10.0 mi SW 19.6 mph - N/A   Clear